• In Hungary
  • List of Countries
  • For 7 days
  • Water Temperature
  • Satellite Maps
  • Weather Map
  • News
  • Weather Widgets
  • user-avatar
    Login

    Hourly Weather Bolshoy Bohot

    Today, 25 April, Wednesday

    Time Temperature Precipitation Wind Pressure Humidity
    00:00 +5°C° 0.1 mm 2 mps 730 mmHg 96%
    01:00 +5°C° 0.1 mm 2 mps 729 mmHg 96%
    02:00 +5°C° 0 mm 2 mps 729 mmHg 97%
    03:00 +5°C° 0 mm 2 mps 729 mmHg 97%
    04:00 +5°C° 0 mm 2 mps 729 mmHg 97%
    05:00 +5°C° 0 mm 2 mps 729 mmHg 96%
    06:00 +5°C° 0 mm 3 mps 728 mmHg 91%
    07:00 +7°C° 0 mm 3 mps 728 mmHg 87%
    08:00 +7°C° 0 mm 4 mps 728 mmHg 82%
    09:00 +7°C° 0.3 mm 4 mps 728 mmHg 78%
    10:00 +8°C° 0.3 mm 4 mps 728 mmHg 75%
    11:00 +10°C° 0.3 mm 4 mps 728 mmHg 71%
    12:00 +10°C° 0.4 mm 4 mps 727 mmHg 69%
    13:00 +11°C° 0.4 mm 4 mps 727 mmHg 66%
    14:00 +11°C° 0.4 mm 4 mps 727 mmHg 64%
    15:00 +11°C° 0.2 mm 4 mps 727 mmHg 65%
    16:00 +10°C° 0.2 mm 4 mps 727 mmHg 67%
    17:00 +10°C° 0.2 mm 4 mps 727 mmHg 68%
    18:00 +9°C° 0 mm 3 mps 727 mmHg 74%
    19:00 +7°C° 0 mm 2 mps 727 mmHg 80%
    20:00 +7°C° 0 mm 1 mps 727 mmHg 86%
    21:00 +5°C° 0 mm 2 mps 726 mmHg 87%
    22:00 +5°C° 0 mm 2 mps 726 mmHg 87%
    23:00 +5°C° 0 mm 2 mps 726 mmHg 88%

    Tomorrow, 26 April, Thursday

    Time Temperature Precipitation Wind Pressure Humidity
    00:00 +5°C° 0.3 mm 2 mps 725 mmHg 89%
    01:00 +5°C° 0.3 mm 2 mps 725 mmHg 89%
    02:00 +5°C° 0.3 mm 2 mps 724 mmHg 90%
    03:00 +5°C° 0.3 mm 3 mps 724 mmHg 91%
    04:00 +5°C° 0.3 mm 3 mps 723 mmHg 93%
    05:00 +5°C° 0.3 mm 3 mps 723 mmHg 94%
    06:00 +7°C° 0.2 mm 3 mps 723 mmHg 93%
    07:00 +7°C° 0.2 mm 3 mps 723 mmHg 93%
    08:00 +8°C° 0.2 mm 3 mps 723 mmHg 92%
    09:00 +6°C° 0.8 mm 4 mps 723 mmHg 91%
    10:00 +6°C° 0.8 mm 4 mps 723 mmHg 89%
    11:00 +6°C° 0.8 mm 5 mps 724 mmHg 88%
    12:00 +7°C° 0.4 mm 5 mps 724 mmHg 83%
    13:00 +7°C° 0.4 mm 5 mps 725 mmHg 78%
    14:00 +8°C° 0.4 mm 5 mps 726 mmHg 73%
    15:00 +8°C° 0.2 mm 5 mps 726 mmHg 71%
    16:00 +8°C° 0.2 mm 4 mps 727 mmHg 70%
    17:00 +8°C° 0.2 mm 4 mps 727 mmHg 68%
    18:00 +7°C° 0 mm 4 mps 728 mmHg 74%
    19:00 +7°C° 0 mm 3 mps 728 mmHg 79%
    20:00 +5°C° 0 mm 3 mps 729 mmHg 85%
    21:00 +5°C° 0 mm 3 mps 729 mmHg 85%
    22:00 +4°C° 0 mm 3 mps 730 mmHg 86%
    23:00 +4°C° 0 mm 3 mps 730 mmHg 86%

    Day after tomorrow, 27 April, Friday

    Time Temperature Precipitation Wind Pressure Humidity
    00:00 +4°C° 0 mm 3 mps 731 mmHg 89%
    01:00 +3°C° 0 mm 3 mps 731 mmHg 92%
    02:00 +3°C° 0 mm 3 mps 731 mmHg 94%
    03:00 +2°C° 0 mm 3 mps 731 mmHg 95%
    04:00 +2°C° 0 mm 3 mps 732 mmHg 96%
    05:00 +2°C° 0 mm 3 mps 732 mmHg 97%
    06:00 +3°C° 0 mm 3 mps 732 mmHg 93%
    07:00 +4°C° 0 mm 3 mps 733 mmHg 88%
    08:00 +5°C° 0 mm 3 mps 733 mmHg 84%
    09:00 +7°C° 0.1 mm 3 mps 733 mmHg 77%
    10:00 +9°C° 0.1 mm 3 mps 734 mmHg 69%
    11:00 +10°C° 0.1 mm 3 mps 734 mmHg 62%
    12:00 +11°C° 0.3 mm 3 mps 734 mmHg 58%
    13:00 +11°C° 0.3 mm 3 mps 734 mmHg 54%
    14:00 +12°C° 0.3 mm 3 mps 734 mmHg 50%
    15:00 +12°C° 0.2 mm 3 mps 734 mmHg 52%
    16:00 +12°C° 0.2 mm 3 mps 734 mmHg 53%
    17:00 +13°C° 0.2 mm 2 mps 734 mmHg 54%
    18:00 +10°C° 0.2 mm 2 mps 734 mmHg 62%
    19:00 +9°C° 0.2 mm 1 mps 734 mmHg 70%
    20:00 +7°C° 0.2 mm 1 mps 734 mmHg 77%
    21:00 +7°C° 0.2 mm 1 mps 735 mmHg 81%
    22:00 +7°C° 0.2 mm 1 mps 735 mmHg 84%
    23:00 +6°C° 0.2 mm 1 mps 735 mmHg 87%

    28 April, Saturday

    Time Temperature Precipitation Wind Pressure Humidity
    00:00 +5°C° 0.1 mm 2 mps 736 mmHg 89%
    01:00 +5°C° 0.1 mm 2 mps 736 mmHg 91%
    02:00 +5°C° 0.1 mm 2 mps 736 mmHg 94%
    03:00 +4°C° 0.1 mm 2 mps 736 mmHg 94%
    04:00 +4°C° 0.1 mm 2 mps 737 mmHg 95%
    05:00 +4°C° 0.1 mm 2 mps 737 mmHg 96%
    06:00 +5°C° 0 mm 2 mps 737 mmHg 90%
    07:00 +5°C° 0 mm 3 mps 738 mmHg 83%
    08:00 +7°C° 0 mm 3 mps 738 mmHg 76%
    09:00 +8°C° 0 mm 3 mps 738 mmHg 71%
    10:00 +9°C° 0 mm 3 mps 739 mmHg 65%
    11:00 +10°C° 0 mm 4 mps 739 mmHg 59%
    12:00 +11°C° 0.1 mm 3 mps 739 mmHg 56%
    13:00 +12°C° 0.1 mm 3 mps 739 mmHg 52%
    14:00 +12°C° 0.1 mm 3 mps 739 mmHg 48%
    15:00 +12°C° 0 mm 3 mps 739 mmHg 48%
    16:00 +12°C° 0 mm 3 mps 739 mmHg 49%
    17:00 +12°C° 0 mm 3 mps 739 mmHg 49%
    18:00 +10°C° 0 mm 2 mps 739 mmHg 56%
    19:00 +9°C° 0 mm 2 mps 738 mmHg 63%
    20:00 +8°C° 0 mm 1 mps 738 mmHg 70%
    21:00 +7°C° 0 mm 2 mps 738 mmHg 71%
    22:00 +6°C° 0 mm 2 mps 738 mmHg 72%
    23:00 +6°C° 0 mm 2 mps 738 mmHg 73%

    29 April, Sunday

    Time Temperature Precipitation Wind Pressure Humidity
    00:00 +7°C° 0.6 mm 3 mps 737 mmHg 76%
    01:00 +7°C° 0.6 mm 3 mps 737 mmHg 80%
    02:00 +6°C° 0.6 mm 4 mps 736 mmHg 84%
    03:00 +6°C° 0.7 mm 4 mps 736 mmHg 86%
    04:00 +6°C° 0.7 mm 4 mps 736 mmHg 88%
    05:00 +7°C° 0.7 mm 4 mps 735 mmHg 91%
    06:00 +8°C° 0 mm 4 mps 735 mmHg 86%
    07:00 +10°C° 0 mm 4 mps 735 mmHg 81%
    08:00 +11°C° 0 mm 4 mps 735 mmHg 76%
    09:00 +10°C° 0 mm 5 mps 736 mmHg 72%
    10:00 +10°C° 0 mm 5 mps 736 mmHg 68%
    11:00 +12°C° 0 mm 5 mps 736 mmHg 64%
    12:00 +10°C° 0.1 mm 5 mps 736 mmHg 66%
    13:00 +10°C° 0.1 mm 5 mps 736 mmHg 68%
    14:00 +9°C° 0.1 mm 5 mps 736 mmHg 70%
    15:00 +9°C° 0 mm 5 mps 737 mmHg 69%
    16:00 +9°C° 0 mm 5 mps 737 mmHg 69%
    17:00 +8°C° 0 mm 5 mps 737 mmHg 69%
    18:00 +8°C° 0 mm 4 mps 737 mmHg 73%
    19:00 +7°C° 0 mm 4 mps 738 mmHg 77%
    20:00 +7°C° 0 mm 3 mps 738 mmHg 80%
    21:00 +7°C° 0 mm 3 mps 738 mmHg 82%
    22:00 +5°C° 0 mm 3 mps 738 mmHg 84%
    23:00 +5°C° 0 mm 3 mps 739 mmHg 86%

    30 April, Monday

    Time Temperature Precipitation Wind Pressure Humidity
    00:00 +4°C° 0 mm 3 mps 739 mmHg 89%
    01:00 +4°C° 0 mm 3 mps 739 mmHg 91%
    02:00 +4°C° 0 mm 2 mps 739 mmHg 94%
    03:00 +4°C° 0 mm 2 mps 739 mmHg 95%
    04:00 +3°C° 0 mm 2 mps 740 mmHg 96%
    05:00 +3°C° 0 mm 2 mps 740 mmHg 97%
    06:00 +4°C° 0 mm 2 mps 740 mmHg 91%
    07:00 +6°C° 0 mm 2 mps 740 mmHg 84%
    08:00 +7°C° 0 mm 2 mps 740 mmHg 78%
    09:00 +9°C° 0 mm 2 mps 740 mmHg 72%
    10:00 +10°C° 0 mm 2 mps 740 mmHg 66%
    11:00 +13°C° 0 mm 2 mps 740 mmHg 59%
    12:00 +13°C° 0 mm 3 mps 740 mmHg 56%
    13:00 +13°C° 0 mm 3 mps 740 mmHg 53%
    14:00 +14°C° 0 mm 3 mps 740 mmHg 50%
    15:00 +15°C° 0 mm 2 mps 739 mmHg 53%
    16:00 +14°C° 0 mm 2 mps 739 mmHg 55%
    17:00 +14°C° 0 mm 2 mps 739 mmHg 58%
    18:00 +12°C° 0 mm 1 mps 739 mmHg 63%
    19:00 +11°C° 0 mm 1 mps 739 mmHg 68%
    20:00 +10°C° 0 mm 1 mps 739 mmHg 72%
    21:00 +9°C° 0 mm 1 mps 739 mmHg 75%
    22:00 +8°C° 0 mm 1 mps 739 mmHg 78%
    23:00 +7°C° 0 mm 1 mps 739 mmHg 81%
    Show more